IRIDIUM 33 DEB, 34508

Orbit data source: Space-Track

IRIDIUM 33 DEB, 34508 is space debris in LEO originally from a launch on Sun, 14 Sep 1997 UTC launched from the Tyuratam Missile And Space Complex (TTMTR). The debris from Iridium 33, an American commercial communications satellite, has been tracked extensively since its accidental collision with the defunct Russian satellite Cosmos 2251 in 2009. This event, occurring at high speed in low Earth orbit (LEO), generated thousands of pieces of space debris, significantly increasing the risk of further collisions. The Iridium 33 debris cloud has impacted space traffic management and orbital debris mitigation strategies, making it a subject of ongoing study in space situational awareness.

Loading next visibility...
Identifier
34508, 1997-051GZ
Orbit
LEO
Country
Flag of USUS
Related business
Manufacturer
Unknown
Mission
Spacecraft
Bus & Motor
Unknown
Mass
Unknown
Launch date (UTC)
1997-09-14 (29 years ago)
Launch vehicle
Unknown
Launch site
Tyuratam Missile And Space Complex (TTMTR)
Object type
Payload
Rocket body
Debris
Shape & HBR
Unknown shape, 0.094 m
Radar Cross Section
Medium (>0.1 m² and <1 m²)

Expand to show TLE details & history
Last TLE update: 1 day ago

TLE from 1 day ago
0 IRIDIUM 33 DEB
1 34508U 97051GZ  26265.65772134  .00001458  00000-0  44624-3 0  9999
2 34508  86.3746 342.0703 0061265 320.9674  38.7111 14.40104562913939
Epoch: 2026-09-22T15:47Z
TLE epoch observation values (Epoch: 2026-09-22T15:47:07.123Z)
Latitude
-0.00003°
Longitude
103.77057°
Altitude
727.195 km
Speed
7.509 km/s
True Right ascension
22h 48m 16s
True Declination
0° 00' 00"
Sunlit
Object was in full shadow at epoch
Visualization orbit readout
Latitude
Unknown
Longitude
Unknown
Altitude
Unknown
Speed
Unknown
Apparent Right ascension
Unknown
Apparent Declination
Unknown
Sunlit
N/A
Visualization observer readout
Local Sidereal Time
13:42:08
Azimuth
Unknown
Elevation
Unknown
Doppler factor
Unknown
Orbital elements
Apogee altitude
798.811 km
Perigee altitude
711.408 km
Semi-major axis
7,133.246 km
Eccentricity
0.00613
Inclination
86.3746°
RAAN
342.0703°
Arg. of periapsis
320.9674°
True anomaly
39.15279°
Mean anomaly
38.7111°
Eccentric anomaly
38.93168°
Mean motion
3.60257 °/min
Orbital period
99.93 mins
BSTAR
0.00044624

Documentation

Showing up to 5 results
|